Flag for Austria Weather past 2 weeks in Stockerau, Lower Austria, Austria

Now
34 °F

Low clouds.


Feels Like: 30 °F
Forecast: 34 / 48 °F
Wind: 5 mph from East

Location: Tulln Airport

Current Time: Feb 27, 2015 at 7:42:28 AM

Latest Report: Feb 27, 2015 at 6:50 AM


Visibility: 4 mi

Pressure: 29.92 "Hg

Humidity: 100%

Dew point: 34 °F

Location of StockerauLocation

Historic Weather in Stockerau — Graph

°F

Stockerau temperature yesterday

Maximum temperature yesterday: 45 °F (at 2:50 PM)
Minimum temperature yesterday: 37 °F (at 7:50 PM)
Average temperature yesterday: 41 °F

Past Weeks' High & Low Weather Summary

 TemperatureHumidityPressure
High52 °F (Feb 20, 1:50 PM)100% (Feb 13, 5:50 AM)30.74 "Hg (Feb 13, 5:50 AM)
Low23 °F (Feb 20, 4:50 AM)46% (Feb 16, 12:50 PM)29.56 "Hg (Feb 21, 7:50 PM)
Average39 °F78%30.09 "Hg
* Reported Feb 12 5:50 AM — Feb 27 5:50 AM, Stockerau, Weather by CustomWeather, © 2015

Note: Actual official high and low records may vary slightly from our data, if they occured in-between our weather recording intervals... More about our weather records

Advertising

Stockerau weather history for previous 24 hours

 ConditionsComfort  
Time TempWeatherWind HumidityBarometerVisibility
5:50 AM
Fri, Feb 27
34 °FLow clouds.5 mph100%29.92 "Hg6 mi
4:50 AM32 °FOvercast.2 mph100%29.95 "Hg6 mi
9:50 PM
Thu, Feb 26
37 °FPassing clouds.No wind87%30.07 "Hg9 mi
8:50 PM37 °FPassing clouds.2 mph87%30.09 "Hg9 mi
7:50 PM37 °FPartly cloudy.No wind87%30.09 "Hg11 mi
6:50 PM41 °FPartly cloudy.1 mph81%30.09 "Hg11 mi
5:50 PM43 °FPassing clouds.No wind76%30.09 "Hg11 mi
3:50 PM45 °FBroken clouds.2 mph71%30.09 "Hg16 mi
2:50 PM45 °FPartly sunny.2 mph66%30.12 "Hg12 mi
1:50 PM43 °FPartly sunny.6 mph71%30.12 "Hg12 mi
12:50 PM43 °FPartly sunny.7 mph71%30.12 "Hg12 mi
11:50 AM43 °FPartly sunny.6 mph71%30.15 "Hg12 mi
10:50 AM43 °FPartly sunny.7 mph71%30.18 "Hg11 mi
9:50 AM41 °FPartly sunny.8 mph76%30.18 "Hg11 mi
8:50 AM41 °FBroken clouds.9 mph76%30.18 "Hg11 mi
7:50 AM39 °FBroken clouds.8 mph75%30.18 "Hg11 mi
Weather by CustomWeather, © 2015

See weather overviewHow to use our weather pages